Hagen — V2PB3 — position and weather

sailwx.info

Track history (hours):
 
Tides and Currents Weather Stations Pressure Air Temp Water Temp Dewpoint Dewpoint Depression Visibility Wind Speed Wind Dir Waves Ship Positions

Hagen

Last reported at 2014-Jul-25 23:14 UTC. Time now 2014-Jul-26 09:08 UTC.
Position N 37°02' E 013°42'.

Length 89 m; draft 5.9 m.

Type: Cargo ship. MMSI: 304010898.

Date/timePositionNaut miles runAvg speedWind from/ knotsBaromVisibWave heightAir tempDewpointWater temp
2014-Jul-25 23:14N 37°02' E 013°42'710.2
2014-Jul-25 22:34N 36°59' E 013°49'1010.0
2014-Jul-25 21:34N 36°54' E 014°01'1010.0
2014-Jul-25 20:34N 36°50' E 014°12'10 9.8
2014-Jul-25 19:34N 36°46' E 014°23'10 9.6
2014-Jul-25 18:34N 36°43' E 014°34'1010.0
2014-Jul-25 17:34N 36°38' E 014°45'10 9.8
2014-Jul-25 16:34N 36°34' E 014°57'10 9.7
2014-Jul-25 15:34N 36°31' E 015°08'397 9.4
2014-Jul-23 21:09N 36°33' E 023°21'16 9.7
2014-Jul-23 19:28N 36°47' E 023°32'52 8.8
2014-Jul-23 13:33N 37°31' E 024°07'19 8.9
2014-Jul-23 11:28N 37°46' E 024°21'  
Track history (hours):
 
Tides and Currents Weather Stations Pressure Air Temp Water Temp Dewpoint Dewpoint Depression Visibility Wind Speed Wind Dir Waves Ship Positions

Hagen

Last reported at 2014-Jul-25 23:14 UTC. Time now 2014-Jul-26 09:08 UTC.
Position N 37°02' E 013°42'.

Length 89 m; draft 5.9 m.

Type: Cargo ship. MMSI: 304010898.

Date/timePositionNaut miles runAvg speedWind from/ knotsBaromVisibWave heightAir tempDewpointWater temp
2014-Jul-25 23:14N 37°02' E 013°42'710.2
2014-Jul-25 22:34N 36°59' E 013°49'1010.0
2014-Jul-25 21:34N 36°54' E 014°01'1010.0
2014-Jul-25 20:34N 36°50' E 014°12'10 9.8
2014-Jul-25 19:34N 36°46' E 014°23'10 9.6
2014-Jul-25 18:34N 36°43' E 014°34'1010.0
2014-Jul-25 17:34N 36°38' E 014°45'10 9.8
2014-Jul-25 16:34N 36°34' E 014°57'10 9.7
2014-Jul-25 15:34N 36°31' E 015°08'397 9.4
2014-Jul-23 21:09N 36°33' E 023°21'16 9.7
2014-Jul-23 19:28N 36°47' E 023°32'52 8.8
2014-Jul-23 13:33N 37°31' E 024°07'19 8.9
2014-Jul-23 11:28N 37°46' E 024°21'  

Dump ship's entire track history